Regional Weather Roundup
Issued by NWS

Home | Current Version | Previous Version | Text Only | Print | Product List | Glossary Off
Versions: 1 2 3 4 5 6 7 8 9 10 11 12 13 14 15 16 17 18 19 20 21 22 23 24 25 26 27

000
ASUS45 KPSR 170310
RWRAZ

ARIZONA HOURLY REGIONAL WEATHER ROUNDUP
NATIONAL WEATHER SERVICE PHOENIX AZ
800 PM MST WED AUG 16 2017

NOTE: FAIR INDICATES FEW OR NO CLOUDS BELOW 12,000 FEET WITH NO
SIGNIFICANT WEATHER AND/OR OBSTRUCTIONS TO VISIBILITY.

AZZ001>003-036-170400-
NORTHWEST ARIZONA

CITY           SKY/WX    TMP DP  RH WIND       PRES   REMARKS
BULLHEAD CITY  CLEAR     97  32  10 S3        29.77R
KINGMAN        CLEAR     81  39  22 SW8       29.98R
$$

AZZ004>008-015-016-018-170400-
NORTH CENTRAL ARIZONA

CITY           SKY/WX    TMP DP  RH WIND       PRES   REMARKS
GRAND CANYON   CLEAR     60  36  40 CALM      30.23R
WILLIAMS       CLEAR     64  41  42 S5        30.24R
PRESCOTT       CLEAR     72  42  34 S5        30.12R
FLAGSTAFF      CLEAR     59  42  53 CALM      30.26R
PAYSON           N/A     72  37  28 CALM      30.15R
PAGE           CLEAR     83  28  13 CALM      30.00R
$$

AZZ009>014-017-170400-
NORTHEAST ARIZONA

CITY           SKY/WX    TMP DP  RH WIND       PRES   REMARKS
WINSLOW        CLEAR     76  39  26 SW10      30.09R
SAINT JOHNS    CLEAR     73  36  25 SW8       30.15R
WINDOW ROCK    CLEAR     66  33  29 CALM      30.23R
SHOW LOW       CLEAR     64  36  34 S8        30.24R
$$

AZZ540-542>544-546-548-170400-
GREATER PHOENIX AREA

CITY           SKY/WX    TMP DP  RH WIND       PRES   REMARKS
PHOENIX        CLEAR     98  43  15 NW7       29.79R
BUCKEYE        CLEAR     91  43  18 SE5       29.80R
LUKE AFB       CLEAR     93  51  23 NE5       29.79R
DEER VALLEY    CLEAR     93  43  17 NW3       29.83R
SCOTTSDALE     CLEAR     95  40  14 CALM      29.84R
MESA-FALCON    CLEAR     93  43  17 S6        29.83R
MESA-GATEWAY   CLEAR     91  41  17 CALM      29.84R
CHANDLER       CLEAR     95  37  13 S5        29.81R
$$

AZZ539-553-170400-
SOUTHWEST MARICOPA COUNTY AND PINAL COUNTY

CITY           SKY/WX    TMP DP  RH WIND       PRES   REMARKS
CASA GRANDE    CLEAR     92  46  20 S5        29.84R
GILA BEND      CLEAR     94  20   7 SW6       29.78R
$$

AZZ503-504-507>509-170400-
SOUTHEAST ARIZONA

CITY           SKY/WX    TMP DP  RH WIND       PRES   REMARKS
TUCSON         CLEAR     90  46  22 SW6       29.95R
DAVIS-MONTHAN  CLEAR     85  50  29 S7        29.94R
RYAN FIELD     CLEAR     90  37  15 SW8       29.94
NOGALES        CLEAR     74  52  46 E7        30.06R
SIERRA VISTA   CLEAR     77  44  30 SW9       30.13R
DOUGLAS        CLEAR     79  46  31 CALM      30.07R
SAFFORD        CLEAR     82  43  25 NW8       29.96R
$$

AZZ532-170400-
SOUTHWEST ARIZONA

CITY           SKY/WX    TMP DP  RH WIND       PRES   REMARKS
YUMA           NOT AVBL
$$

CAZ041-043-047-048-061-525>527-560>570-170400-
SOUTHERN CALIFORNIA

CITY           SKY/WX    TMP DP  RH WIND       PRES   REMARKS
DOWNTOWN L.A.  CLEAR     69  60  73 W3        29.93R
L.A. AIRPORT   PTCLDY    67  62  84 W13       29.94R
SAN DIEGO      PTCLDY    69  60  73 NW9       29.96R
BURBANK        CLEAR     70  57  63 S9        29.93R
ONTARIO        CLEAR     73  59  61 W13       29.93R
RIVERSIDE      CLEAR     72  60  66 W10       29.93R
PALM SPRINGS   CLEAR     92  50  23 NW18G26   29.78R
EL CENTRO NAS  CLEAR     93  46  19 W18       29.75R
IMPERIAL       CLEAR     91  53  27 W12       29.73R
BLYTHE         CLEAR     95  37  13 S6        29.75R
NEEDLES        CLEAR     98  33  10 SW8       29.79R
$$

NVZ020-UTZ003-170400-
SOUTHERN NEVADA-UTAH

CITY           SKY/WX    TMP DP  RH WIND       PRES   REMARKS
LAS VEGAS      PTCLDY    93  39  15 SE5       29.87R
SALT LAKE CITY MOCLDY    82  38  20 N6        30.02R
$$

NMZ009-TXZ055-170400-
NEW MEXICO-WEST TEXAS

CITY           SKY/WX    TMP DP  RH WIND       PRES   REMARKS
ALBUQUERQUE    PTCLDY    82  36  19 S9        30.10R
EL PASO        PTCLDY    85  51  31 S3        30.02R
$$


........................KEY........................
SKY/WX - SKY CONDITION/WEATHER
TMP    - TEMPERATURE IN FAHRENHEIT
DP     - DEW POINT IN FAHRENHEIT
RH     - RELATIVE HUMIDITY IN PERCENT
WIND   - DIRECTION AND SPEED IN MILES PER HOUR (MPH)
VRB    - VARIABLE WIND DIRECTION
PRES   - MEAN SEA LEVEL PRESSURE IN INCHES OF MERCURY
         F - FALLING PRESSURE   R - RISING PRESSURE
         S - STEADY PRESSURE
VSB    - VISIBILITY IN MILES
HX     - HEAT INDEX IN FAHRENHEIT
WCI    - WIND CHILL INDEX IN FAHRENHEIT
TC     - TEMPERATURE IN CELSIUS WHICH IS ALSO KNOWN AS
         TEMPERATURE IN CENTIGRADE
AFB    - AIR FORCE BASE
         LUKE AFB IS LUKE AIR FORCE BASE
         DAVIS-MONTHAN IS DAVIS-MONTHAN AIR FORCE BASE
NAS    - NAVAL AIR STATION
         EL CENTRO NAS IS EL CENTRO NAVAL AIR STATION
N/A    - NOT AVAILABLE





USA.gov is the U.S. government's official web portal to all federal, state and local government web resources and services.